Location: NJAA Observatory
(40.6819°N, 74.8979°W)
Time: 10:30:26
(UTC-05:00)

Transit 2A Rocket - Visible Passes

Search period start: 30 January 2015 00:00
Search period end: 09 February 2015 00:00
Orbit: 585 x 922 km, 66.7° (Epoch: 29 January)

Date Brightness Start Highest point End Pass type
(mag) Time Alt. Az. Time Alt. Az. Time Alt. Az.
30 Jan 6.0 17:41:40 10° SW 17:46:45 49° NW 17:52:20 10° NNE visible
30 Jan 7.8 19:29:21 10° NW 19:31:05 11° NNW 19:32:37 10° NNW visible
31 Jan 7.6 18:45:03 10° WNW 18:48:30 16° NW 18:51:56 10° N visible
01 Feb 7.1 18:01:40 10° W 18:06:01 23° NW 18:10:34 10° N visible
03 Feb 7.7 18:23:17 10° WNW 18:25:42 12° NNW 18:27:59 10° N visible
04 Feb 7.4 17:39:21 10° W 17:43:08 18° NW 17:46:58 10° N visible
